Location: Avoca
(45.7167°N, 74.7000°W)
Time: 19:49:55
(UTC+00:00)

STARLINK-5281 - Pass Details

Date: 04 December 2022
Orbit: 539 x 541 km, 53.2° (Epoch: 03 February)

Event Time Altitude Azimuth Distance (km) Brightness Sun altitude
Rises 23:08:14 0° 235° (SW) 2,712 ? -19.0°
Reaches altitude 10° 23:10:27 10° 234° (SW) 1,823 ? -19.4°
Maximum altitude 23:14:36 85° 148° (SSE) 560 ? -20.1°
Enters shadow 23:15:23 58° 65° (ENE) 649 ? -20.2°
